,,,PA_Meas_PMT16A,,PR_Meas_QMR101_102,,RH_Meas_QMH101,,SR_Meas_QMS101,,TA_Meas_QMH101,,GenWind,,GenWind,
date,time,status,PA,status,PR,status,RH,status,SR,status,TA,status,DirAvg,status,SpdAvg,
2012-05-24, 00:00:04,VALID,1003.94,VALID,0,VALID,90.5319,VALID,0,VALID,25.6895,VALID,9,VALID,0,
2012-05-24, 00:01:04,VALID,1003.96,VALID,0,VALID,90.7074,VALID,0,VALID,25.67,VALID,8,VALID,0,
2012-05-24, 00:02:04,VALID,1003.94,VALID,0,VALID,90.654,VALID,0,VALID,25.6292,VALID,8,VALID,0,
2012-05-24, 00:03:04,VALID,1003.91,VALID,0,VALID,90.8676,VALID,0,VALID,25.5902,VALID,9,VALID,0,
2012-05-24, 00:04:04,VALID,1003.88,VALID,0,VALID,91.0202,VALID,0.0815089,VALID,25.6097,VALID,8,VALID,0.015625,
2012-05-24, 00:05:04,VALID,1003.86,VALID,0,VALID,91.0278,VALID,0,VALID,25.5902,VALID,8,VALID,0,
2012-05-24, 00:06:04,VALID,1003.88,VALID,0,VALID,91.0507,VALID,0,VALID,25.5707,VALID,8,VALID,0.191016,
2012-05-24, 00:07:04,VALID,1003.86,VALID,0,VALID,90.9363,VALID,0,VALID,25.5123,VALID,9,VALID,0.631641,
2012-05-24, 00:08:04,VALID,1003.82,VALID,0,VALID,91.1041,VALID,0,VALID,25.4928,VALID,8,VALID,0.0132813,
2012-05-24, 00:09:04,VALID,1003.83,VALID,0,VALID,91.2185,VALID,0,VALID,25.4734,VALID,8,VALID,0.05,
2012-05-24, 00:10:04,VALID,1003.84,VALID,0,VALID,91.2796,VALID,0,VALID,25.4539,VALID,8,VALID,0.152734,
2012-05-24, 00:11:04,VALID,1003.82,VALID,0,VALID,91.8288,VALID,0,VALID,25.4948,VALID,62,VALID,0.519922,
2012-05-24, 00:12:04,VALID,1003.81,VALID,0,VALID,92.1264,VALID,0.0815089,VALID,25.5707,VALID,62,VALID,0.133594,
2012-05-24, 00:13:04,VALID,1003.76,VALID,0,VALID,92.0882,VALID,0,VALID,25.6097,VALID,86,VALID,0.2875,
2012-05-24, 00:14:04,VALID,1003.74,VALID,0,VALID,91.9662,VALID,0,VALID,25.6097,VALID,86,VALID,0.0640625,
2012-05-24, 00:15:04,VALID,1003.77,VALID,0,VALID,92.5231,VALID,0,VALID,25.746,VALID,107,VALID,1.45313,
2012-05-24, 00:16:04,VALID,1003.77,VALID,0,VALID,91.928,VALID,0,VALID,25.9622,VALID,79,VALID,0.968359,
2012-05-24, 00:17:04,VALID,1003.78,VALID,0,VALID,91.0965,VALID,0,VALID,26.0187,VALID,97,VALID,0.424609,
2012-05-24, 00:18:04,VALID,1003.82,VALID,0,VALID,89.7538,VALID,0.0815089,VALID,25.9992,VALID,96,VALID,0.180469,
2012-05-24, 00:19:04,VALID,1003.81,VALID,0,VALID,89.853,VALID,0,VALID,25.9602,VALID,96,VALID,0.417969,
2012-05-24, 00:20:04,VALID,1003.75,VALID,0,VALID,90.2344,VALID,0,VALID,25.9408,VALID,51,VALID,0.623438,
2012-05-24, 00:21:04,VALID,1003.79,VALID,0,VALID,90.0894,VALID,0.0815089,VALID,25.9408,VALID,64,VALID,0.116797,
2012-05-24, 00:22:04,VALID,1003.78,VALID,0,VALID,90.036,VALID,0.0815089,VALID,25.9232,VALID,64,VALID,0,
2012-05-24, 00:23:04,VALID,1003.77,VALID,0,VALID,90.2802,VALID,0,VALID,25.9018,VALID,64,VALID,0,
2012-05-24, 00:24:04,VALID,1003.76,VALID,0,VALID,90.4709,VALID,0,VALID,25.9018,VALID,80,VALID,0.348437,
2012-05-24, 00:25:04,VALID,1003.76,VALID,0,VALID,90.86,VALID,0,VALID,25.9602,VALID,110,VALID,0.971484,
2012-05-24, 00:26:04,VALID,1003.74,VALID,0,VALID,90.7837,VALID,0.0815089,VALID,26.0381,VALID,111,VALID,0.583984,
2012-05-24, 00:27:04,VALID,1003.75,VALID,0,VALID,90.4938,VALID,0,VALID,26.116,VALID,106,VALID,0.552734,
2012-05-24, 00:28:04,VALID,1003.7,VALID,0,VALID,90.2115,VALID,0,VALID,26.1355,VALID,86,VALID,0.395312,
2012-05-24, 00:29:04,VALID,1003.7,VALID,0,VALID,90.0284,VALID,0,VALID,26.192,VALID,290,VALID,0.192188,
2012-05-24, 00:30:04,VALID,1003.69,VALID,0,VALID,89.647,VALID,0.0815089,VALID,26.2719,VALID,290,VALID,0.153906,
2012-05-24, 00:31:04,VALID,1003.66,VALID,0,VALID,89.1969,VALID,0.0815089,VALID,26.2913,VALID,3,VALID,0.653906,
2012-05-24, 00:32:04,VALID,1003.67,VALID,0,VALID,89.1282,VALID,0.0815089,VALID,26.2699,VALID,87,VALID,0.201562,
2012-05-24, 00:33:04,VALID,1003.67,VALID,0,VALID,89.2274,VALID,0.0815089,VALID,26.2719,VALID,77,VALID,0.302344,
2012-05-24, 00:34:04,VALID,1003.68,VALID,0,VALID,89.2579,VALID,0,VALID,26.2524,VALID,77,VALID,0.173438,
2012-05-24, 00:35:04,VALID,1003.65,VALID,0,VALID,89.3342,VALID,0,VALID,26.2719,VALID,64,VALID,0.343359,
2012-05-24, 00:36:04,VALID,1003.64,VALID,0,VALID,89.4105,VALID,0.0815089,VALID,26.2504,VALID,64,VALID,0,
2012-05-24, 00:37:04,VALID,1003.63,VALID,0,VALID,89.3723,VALID,0.0815089,VALID,26.2114,VALID,64,VALID,0,
2012-05-24, 00:38:04,VALID,1003.62,VALID,0,VALID,89.4181,VALID,0.0815089,VALID,26.2524,VALID,64,VALID,0,
2012-05-24, 00:39:04,VALID,1003.6,VALID,0,VALID,89.4028,VALID,0,VALID,26.2524,VALID,64,VALID,0,
2012-05-24, 00:40:04,VALID,1003.59,VALID,0,VALID,89.4334,VALID,0,VALID,26.2134,VALID,64,VALID,0.320703,
2012-05-24, 00:41:04,VALID,1003.6,VALID,0,VALID,89.4257,VALID,0,VALID,26.194,VALID,64,VALID,0.149609,
2012-05-24, 00:42:04,VALID,1003.62,VALID,0,VALID,89.5097,VALID,0,VALID,26.1745,VALID,64,VALID,0,
2012-05-24, 00:43:04,VALID,1003.6,VALID,0,VALID,89.708,VALID,0,VALID,26.155,VALID,64,VALID,0.00429688,
2012-05-24, 00:44:04,VALID,1003.59,VALID,0,VALID,89.769,VALID,0,VALID,26.157,VALID,64,VALID,0,
2012-05-24, 00:45:04,VALID,1003.57,VALID,0,VALID,89.9369,VALID,0,VALID,26.1355,VALID,96,VALID,0.462891,
2012-05-24, 00:46:04,VALID,1003.56,VALID,0,VALID,89.7843,VALID,0,VALID,26.157,VALID,113,VALID,0.119922,
2012-05-24, 00:47:04,VALID,1003.55,VALID,0,VALID,89.8224,VALID,0,VALID,26.116,VALID,113,VALID,0.573438,
2012-05-24, 00:48:04,VALID,1003.54,VALID,0,VALID,89.8682,VALID,0,VALID,26.116,VALID,113,VALID,0.0375,
2012-05-24, 00:49:04,VALID,1003.5,VALID,0,VALID,89.9903,VALID,0,VALID,26.116,VALID,88,VALID,0.358203,
2012-05-24, 00:50:04,VALID,1003.5,VALID,0,VALID,89.9369,VALID,0,VALID,26.118,VALID,88,VALID,0.266016,
2012-05-24, 00:51:04,VALID,1003.49,VALID,0,VALID,89.5707,VALID,0.0815089,VALID,26.0596,VALID,88,VALID,0.170703,
2012-05-24, 00:52:04,VALID,1003.49,VALID,0,VALID,90.1505,VALID,0,VALID,26.0381,VALID,99,VALID,0.716797,
2012-05-24, 00:53:04,VALID,1003.48,VALID,0,VALID,90.2878,VALID,0.0815089,VALID,26.0771,VALID,109,VALID,0.376172,
2012-05-24, 00:54:04,VALID,1003.47,VALID,0,VALID,90.3641,VALID,0,VALID,26.0751,VALID,111,VALID,0.480859,
2012-05-24, 00:55:04,VALID,1003.46,VALID,0,VALID,90.2268,VALID,0,VALID,26.157,VALID,111,VALID,0.375391,
2012-05-24, 00:56:04,VALID,1003.45,VALID,0,VALID,90.0132,VALID,0.0815089,VALID,26.155,VALID,111,VALID,0.0046875,
2012-05-24, 00:57:04,VALID,1003.45,VALID,0,VALID,89.9674,VALID,0,VALID,26.1959,VALID,111,VALID,0,
2012-05-24, 00:58:04,VALID,1003.47,VALID,0,VALID,89.8835,VALID,0,VALID,26.194,VALID,111,VALID,0.508984,
2012-05-24, 00:59:04,VALID,1003.44,VALID,0,VALID,89.708,VALID,0,VALID,26.2134,VALID,111,VALID,0.705859,
2012-05-24, 01:00:04,VALID,1003.41,VALID,0,VALID,89.6775,VALID,0,VALID,26.2544,VALID,112,VALID,0.725781,
2012-05-24, 01:01:04,VALID,1003.4,VALID,0,VALID,89.5554,VALID,0,VALID,26.2739,VALID,103,VALID,0.628906,
2012-05-24, 01:02:04,VALID,1003.37,VALID,0,VALID,89.4715,VALID,0,VALID,26.2913,VALID,89,VALID,0.783594,
2012-05-24, 01:03:04,VALID,1003.36,VALID,0,VALID,89.2045,VALID,0,VALID,26.3323,VALID,104,VALID,0.572266,
2012-05-24, 01:04:04,VALID,1003.35,VALID,0,VALID,89.1053,VALID,0,VALID,26.3518,VALID,92,VALID,0.775391,
2012-05-24, 01:05:04,VALID,1003.35,VALID,0,VALID,88.8078,VALID,0,VALID,26.3887,VALID,65,VALID,0.189063,
2012-05-24, 01:06:04,VALID,1003.32,VALID,0,VALID,88.6857,VALID,0,VALID,26.3693,VALID,65,VALID,0.215234,
2012-05-24, 01:07:04,VALID,1003.29,VALID,0,VALID,88.495,VALID,0,VALID,26.3713,VALID,30,VALID,0.589063,
2012-05-24, 01:08:04,VALID,1003.26,VALID,0,VALID,88.6018,VALID,0,VALID,26.3518,VALID,20,VALID,0.45,
2012-05-24, 01:09:04,VALID,1003.25,VALID,0,VALID,88.8459,VALID,0,VALID,26.3108,VALID,86,VALID,1.01133,
2012-05-24, 01:10:04,VALID,1003.26,VALID,0,VALID,88.6552,VALID,0,VALID,26.3128,VALID,94,VALID,0.161328,
2012-05-24, 01:11:04,VALID,1003.22,VALID,0,VALID,88.8231,VALID,0,VALID,26.2739,VALID,94,VALID,0.197656,
2012-05-24, 01:12:04,VALID,1003.23,VALID,0,VALID,89.1282,VALID,0,VALID,26.2739,VALID,79,VALID,0.873047,
2012-05-24, 01:13:04,VALID,1003.16,VALID,0,VALID,89.0519,VALID,0,VALID,26.2913,VALID,84,VALID,0.511328,
2012-05-24, 01:14:04,VALID,1003.14,VALID,0,VALID,88.9299,VALID,0,VALID,26.3303,VALID,109,VALID,0.923047,
2012-05-24, 01:15:04,VALID,1003.11,VALID,0,VALID,88.6476,VALID,0,VALID,26.3693,VALID,108,VALID,0.385547,
2012-05-24, 01:16:04,VALID,1003.08,VALID,0,VALID,88.4111,VALID,0,VALID,26.4082,VALID,68,VALID,0.675781,
2012-05-24, 01:17:04,VALID,1003.05,VALID,0,VALID,88.1822,VALID,0,VALID,26.4861,VALID,96,VALID,1.42305,
2012-05-24, 01:18:04,VALID,1002.98,VALID,0,VALID,87.755,VALID,0,VALID,26.5056,VALID,73,VALID,0.417578,
2012-05-24, 01:19:04,VALID,1002.96,VALID,0,VALID,87.6253,VALID,0,VALID,26.5076,VALID,54,VALID,0.420703,
2012-05-24, 01:20:04,VALID,1002.92,VALID,0,VALID,87.7779,VALID,0,VALID,26.4472,VALID,54,VALID,0.126563,
2012-05-24, 01:21:04,VALID,1002.89,VALID,0,VALID,88.0068,VALID,0,VALID,26.4082,VALID,69,VALID,0.662109,
2012-05-24, 01:22:04,VALID,1002.88,VALID,0,VALID,88.0525,VALID,0,VALID,26.4277,VALID,66,VALID,0.6,
2012-05-24, 01:23:04,VALID,1002.86,VALID,0,VALID,87.9915,VALID,0,VALID,26.4492,VALID,83,VALID,0.296875,
2012-05-24, 01:24:04,VALID,1002.78,VALID,0,VALID,88.022,VALID,0,VALID,26.4082,VALID,88,VALID,0.576953,
2012-05-24, 01:25:04,VALID,1002.81,VALID,0,VALID,88.1136,VALID,0,VALID,26.4082,VALID,111,VALID,1.27656,
2012-05-24, 01:26:04,VALID,1002.77,VALID,0,VALID,87.8313,VALID,0,VALID,26.4277,VALID,76,VALID,0.675391,
2012-05-24, 01:27:04,VALID,1002.76,VALID,0,VALID,87.9076,VALID,0,VALID,26.4082,VALID,79,VALID,0.59375,
2012-05-24, 01:28:04,VALID,1002.76,VALID,0,VALID,87.8923,VALID,0,VALID,26.4082,VALID,80,VALID,1.07773,
2012-05-24, 01:29:04,VALID,1002.77,VALID,0,VALID,87.7855,VALID,0,VALID,26.4277,VALID,103,VALID,0.276563,
2012-05-24, 01:30:04,VALID,1002.73,VALID,0,VALID,87.7932,VALID,0,VALID,26.4277,VALID,103,VALID,0.632422,
2012-05-24, 01:31:04,VALID,1002.74,VALID,0,VALID,87.6711,VALID,0,VALID,26.4667,VALID,100,VALID,0.514453,
2012-05-24, 01:32:04,VALID,1002.75,VALID,0,VALID,87.5109,VALID,0,VALID,26.4861,VALID,118,VALID,0.476953,
2012-05-24, 01:33:04,VALID,1002.74,VALID,0,VALID,87.427,VALID,0,VALID,26.5076,VALID,118,VALID,0.765234,
2012-05-24, 01:34:04,VALID,1002.74,VALID,0,VALID,87.5185,VALID,0,VALID,26.4687,VALID,122,VALID,0.639844,
2012-05-24, 01:35:04,VALID,1002.72,VALID,0,VALID,87.4956,VALID,0,VALID,26.4472,VALID,115,VALID,0.654688,
2012-05-24, 01:36:04,VALID,1002.74,VALID,0,VALID,87.5338,VALID,0,VALID,26.4472,VALID,81,VALID,0.81875,
2012-05-24, 01:37:04,VALID,1002.73,VALID,0,VALID,87.4804,VALID,0,VALID,26.4082,VALID,84,VALID,0.235156,
2012-05-24, 01:38:04,VALID,1002.74,VALID,0,VALID,87.5414,VALID,0,VALID,26.4082,VALID,84,VALID,0.328516,
2012-05-24, 01:39:04,VALID,1002.74,VALID,0,VALID,87.6482,VALID,0,VALID,26.3693,VALID,84,VALID,0.08125,
2012-05-24, 01:40:04,VALID,1002.75,VALID,0,VALID,87.8923,VALID,0,VALID,26.3693,VALID,94,VALID,0.872266,
2012-05-24, 01:41:04,VALID,1002.74,VALID,0,VALID,87.816,VALID,0,VALID,26.3693,VALID,97,VALID,0.185937,
2012-05-24, 01:42:04,VALID,1002.7,VALID,0,VALID,87.8466,VALID,0,VALID,26.3498,VALID,97,VALID,0.331641,
2012-05-24, 01:43:04,VALID,1002.7,VALID,0,VALID,87.8923,VALID,0,VALID,26.3108,VALID,97,VALID,0.239063,
2012-05-24, 01:44:04,VALID,1002.69,VALID,0,VALID,88.022,VALID,0,VALID,26.2719,VALID,97,VALID,0.114453,
2012-05-24, 01:45:04,VALID,1002.69,VALID,0,VALID,88.2356,VALID,0,VALID,26.2134,VALID,97,VALID,0.0148437,
2012-05-24, 01:46:04,VALID,1002.68,VALID,0,VALID,88.5332,VALID,0,VALID,26.2154,VALID,66,VALID,0.107031,
2012-05-24, 01:47:04,VALID,1002.65,VALID,0,VALID,88.907,VALID,0,VALID,26.2154,VALID,91,VALID,1.00312,
2012-05-24, 01:48:04,VALID,1002.66,VALID,0,VALID,88.7544,VALID,0,VALID,26.2154,VALID,29,VALID,0.607031,
2012-05-24, 01:49:04,VALID,1002.67,VALID,0,VALID,88.7315,VALID,0.0815089,VALID,26.1745,VALID,30,VALID,0.266406,
2012-05-24, 01:50:04,VALID,1002.67,VALID,0,VALID,88.8231,VALID,0,VALID,26.1765,VALID,80,VALID,0.385938,
2012-05-24, 01:51:04,VALID,1002.66,VALID,0,VALID,88.8154,VALID,0.0815089,VALID,26.1355,VALID,75,VALID,0.101172,
2012-05-24, 01:52:04,VALID,1002.63,VALID,0,VALID,89.113,VALID,0,VALID,26.1355,VALID,87,VALID,0.875391,
2012-05-24, 01:53:04,VALID,1002.58,VALID,0,VALID,89.0748,VALID,0,VALID,26.116,VALID,80,VALID,0.0511719,
2012-05-24, 01:54:04,VALID,1002.61,VALID,0,VALID,89.0901,VALID,0,VALID,26.0791,VALID,80,VALID,0.155859,
2012-05-24, 01:55:04,VALID,1002.57,VALID,0,VALID,89.235,VALID,0,VALID,26.0596,VALID,80,VALID,0.221094,
2012-05-24, 01:56:04,VALID,1002.54,VALID,0,VALID,89.4944,VALID,0,VALID,26.0616,VALID,78,VALID,0.902344,
2012-05-24, 01:57:04,VALID,1002.52,VALID,0,VALID,89.6775,VALID,0,VALID,26.0791,VALID,103,VALID,1.02266,
2012-05-24, 01:58:04,VALID,1002.52,VALID,0,VALID,89.4563,VALID,0,VALID,26.0791,VALID,39,VALID,0.584375,
2012-05-24, 01:59:04,VALID,1002.51,VALID,0,VALID,89.4639,VALID,0,VALID,26.1005,VALID,42,VALID,0.390234,
2012-05-24, 02:00:04,VALID,1002.54,VALID,0,VALID,89.4028,VALID,0,VALID,26.0596,VALID,26,VALID,0.907812,
2012-05-24, 02:01:04,VALID,1002.55,VALID,0,VALID,89.5554,VALID,0,VALID,26.0401,VALID,82,VALID,0.553125,
2012-05-24, 02:02:04,VALID,1002.53,VALID,0,VALID,89.5707,VALID,0,VALID,26.0596,VALID,25,VALID,0.349219,
2012-05-24, 02:03:04,VALID,1002.52,VALID,0,VALID,89.6012,VALID,0,VALID,26.0616,VALID,25,VALID,0.614844,
2012-05-24, 02:04:04,VALID,1002.55,VALID,0,VALID,89.6165,VALID,0,VALID,26.0401,VALID,38,VALID,0.577344,
2012-05-24, 02:05:04,VALID,1002.54,VALID,0,VALID,89.6088,VALID,0,VALID,26.0616,VALID,34,VALID,0.573047,
2012-05-24, 02:06:04,VALID,1002.52,VALID,0,VALID,89.4791,VALID,0,VALID,26.0401,VALID,34,VALID,0.353125,
2012-05-24, 02:07:04,VALID,1002.53,VALID,0,VALID,89.3952,VALID,0,VALID,26.081,VALID,89,VALID,0.275391,
2012-05-24, 02:08:04,VALID,1002.51,VALID,0,VALID,89.3647,VALID,0,VALID,26.0206,VALID,89,VALID,0.223438,
2012-05-24, 02:09:04,VALID,1002.49,VALID,0,VALID,89.3113,VALID,0,VALID,26.0187,VALID,89,VALID,0.30625,
2012-05-24, 02:10:04,VALID,1002.5,VALID,0,VALID,89.3723,VALID,0,VALID,25.9777,VALID,89,VALID,0.00117188,
2012-05-24, 02:11:04,VALID,1002.49,VALID,0,VALID,89.5554,VALID,0,VALID,26.0012,VALID,25,VALID,0.4125,
2012-05-24, 02:12:04,VALID,1002.5,VALID,0,VALID,89.6317,VALID,0.0815089,VALID,25.9797,VALID,66,VALID,0.548828,
2012-05-24, 02:13:04,VALID,1002.48,VALID,0,VALID,89.5783,VALID,0,VALID,25.9817,VALID,65,VALID,0.0132813,
2012-05-24, 02:14:04,VALID,1002.52,VALID,0,VALID,89.6165,VALID,0,VALID,25.9193,VALID,65,VALID,0,
2012-05-24, 02:15:04,VALID,1002.51,VALID,0,VALID,89.8606,VALID,0.0815089,VALID,25.9408,VALID,86,VALID,0.955469,
2012-05-24, 02:16:04,VALID,1002.53,VALID,0,VALID,89.8453,VALID,0.0815089,VALID,25.9408,VALID,77,VALID,0.953125,
2012-05-24, 02:17:04,VALID,1002.51,VALID,0,VALID,89.8301,VALID,0.0815089,VALID,25.9408,VALID,54,VALID,0.567187,
2012-05-24, 02:18:04,VALID,1002.52,VALID,0,VALID,89.7309,VALID,0.0815089,VALID,25.9213,VALID,50,VALID,0.369922,
2012-05-24, 02:19:04,VALID,1002.51,VALID,0,VALID,89.6927,VALID,0.0815089,VALID,25.8823,VALID,22,VALID,0.736719,
2012-05-24, 02:20:04,VALID,1002.49,VALID,0,VALID,89.769,VALID,0,VALID,25.8629,VALID,44,VALID,0.284766,
2012-05-24, 02:21:04,VALID,1002.49,VALID,0,VALID,89.9292,VALID,0,VALID,25.8239,VALID,27,VALID,0.284766,
2012-05-24, 02:22:04,VALID,1002.5,VALID,0,VALID,90.1047,VALID,0.0815089,VALID,25.8239,VALID,82,VALID,1.11016,
2012-05-24, 02:23:04,VALID,1002.48,VALID,0,VALID,90.2191,VALID,0.0815089,VALID,25.8044,VALID,92,VALID,0.534766,
2012-05-24, 02:24:04,VALID,1002.45,VALID,0,VALID,90.3412,VALID,0.0815089,VALID,25.8434,VALID,85,VALID,0.630469,
2012-05-24, 02:25:04,VALID,1002.43,VALID,0,VALID,90.2344,VALID,0,VALID,25.8239,VALID,33,VALID,0.285937,
2012-05-24, 02:26:04,VALID,1002.43,VALID,0,VALID,90.387,VALID,0,VALID,25.8239,VALID,49,VALID,0.697266,
2012-05-24, 02:27:04,VALID,1002.43,VALID,0,VALID,90.3183,VALID,0,VALID,25.8823,VALID,66,VALID,0.977344,
2012-05-24, 02:28:04,VALID,1002.43,VALID,0,VALID,90.1123,VALID,0.0815089,VALID,25.8823,VALID,88,VALID,0.529297,
2012-05-24, 02:29:04,VALID,1002.42,VALID,0,VALID,90.0513,VALID,0.0815089,VALID,25.8823,VALID,91,VALID,0.471875,
2012-05-24, 02:30:04,VALID,1002.41,VALID,0,VALID,90.0132,VALID,0.0815089,VALID,25.8823,VALID,34,VALID,0.641016,
2012-05-24, 02:31:04,VALID,1002.4,VALID,0,VALID,90.242,VALID,0,VALID,25.8823,VALID,28,VALID,0.450391,
2012-05-24, 02:32:04,VALID,1002.39,VALID,0,VALID,90.1657,VALID,0,VALID,25.8823,VALID,29,VALID,1.16172,
2012-05-24, 02:33:04,VALID,1002.38,VALID,0,VALID,90.1886,VALID,0,VALID,25.9018,VALID,95,VALID,1.28594,
2012-05-24, 02:34:04,VALID,1002.42,VALID,0,VALID,89.9521,VALID,0,VALID,25.9018,VALID,14,VALID,0.232031,
2012-05-24, 02:35:04,VALID,1002.37,VALID,0,VALID,89.914,VALID,0,VALID,25.8823,VALID,14,VALID,0.251172,
2012-05-24, 02:36:04,VALID,1002.36,VALID,0,VALID,90.0818,VALID,0.0815089,VALID,25.8629,VALID,14,VALID,0,
2012-05-24, 02:37:04,VALID,1002.35,VALID,0,VALID,90.0513,VALID,0.0815089,VALID,25.8219,VALID,15,VALID,0,
2012-05-24, 02:38:04,VALID,1002.34,VALID,0,VALID,90.0818,VALID,0.0815089,VALID,25.8044,VALID,15,VALID,0,
2012-05-24, 02:39:04,VALID,1002.31,VALID,0,VALID,90.0971,VALID,0,VALID,25.7674,VALID,15,VALID,0,
2012-05-24, 02:40:04,VALID,1002.3,VALID,0,VALID,90.4556,VALID,0,VALID,25.748,VALID,44,VALID,0.254297,
2012-05-24, 02:41:04,VALID,1002.28,VALID,0,VALID,90.448,VALID,0,VALID,25.748,VALID,44,VALID,0,
2012-05-24, 02:42:04,VALID,1002.27,VALID,0,VALID,90.654,VALID,0,VALID,25.748,VALID,44,VALID,0.0183594,
2012-05-24, 02:43:04,VALID,1002.26,VALID,0,VALID,90.5777,VALID,0,VALID,25.7285,VALID,44,VALID,0.0015625,
2012-05-24, 02:44:04,VALID,1002.27,VALID,0,VALID,90.6006,VALID,0,VALID,25.7285,VALID,44,VALID,0,
2012-05-24, 02:45:04,VALID,1002.27,VALID,0,VALID,90.7226,VALID,0,VALID,25.709,VALID,50,VALID,0.550391,
2012-05-24, 02:46:04,VALID,1002.28,VALID,0,VALID,90.7913,VALID,0,VALID,25.6681,VALID,53,VALID,0.266016,
2012-05-24, 02:47:04,VALID,1002.29,VALID,0,VALID,90.7455,VALID,0,VALID,25.67,VALID,55,VALID,0.25,
2012-05-24, 02:48:04,VALID,1002.33,VALID,0,VALID,90.7913,VALID,0,VALID,25.67,VALID,80,VALID,0.476172,
2012-05-24, 02:49:04,VALID,1002.35,VALID,0,VALID,90.715,VALID,0,VALID,25.6311,VALID,80,VALID,0.176563,
2012-05-24, 02:50:04,VALID,1002.37,VALID,0,VALID,91.0507,VALID,0,VALID,25.6116,VALID,75,VALID,0.320703,
2012-05-24, 02:51:04,VALID,1002.4,VALID,0,VALID,90.8295,VALID,0,VALID,25.6116,VALID,73,VALID,0.140625,
2012-05-24, 02:52:04,VALID,1002.43,VALID,0,VALID,91.0354,VALID,0,VALID,25.5921,VALID,84,VALID,0.934375,
2012-05-24, 02:53:04,VALID,1002.42,VALID,0,VALID,91.0888,VALID,0,VALID,25.5921,VALID,77,VALID,0.375391,
2012-05-24, 02:54:04,VALID,1002.42,VALID,0,VALID,91.1193,VALID,0,VALID,25.5707,VALID,77,VALID,0.0210938,
2012-05-24, 02:55:04,VALID,1002.41,VALID,0,VALID,91.1346,VALID,0,VALID,25.5921,VALID,77,VALID,0.355078,
2012-05-24, 02:56:04,VALID,1002.39,VALID,0,VALID,91.2262,VALID,0,VALID,25.6116,VALID,77,VALID,0.506641,
2012-05-24, 02:57:04,VALID,1002.43,VALID,0,VALID,91.0812,VALID,0,VALID,25.6116,VALID,77,VALID,0.157031,
2012-05-24, 02:58:04,VALID,1002.4,VALID,0,VALID,91.1651,VALID,0,VALID,25.6116,VALID,74,VALID,0.375391,
2012-05-24, 02:59:04,VALID,1002.45,VALID,0,VALID,91.0202,VALID,0,VALID,25.633,VALID,74,VALID,0,
2012-05-24, 03:00:04,VALID,1002.46,VALID,0,VALID,91.1956,VALID,0,VALID,25.6311,VALID,117,VALID,0.624609,
2012-05-24, 03:01:04,VALID,1002.46,VALID,0,VALID,90.9744,VALID,0,VALID,25.6506,VALID,117,VALID,0.174219,
2012-05-24, 03:02:04,VALID,1002.47,VALID,0,VALID,90.8829,VALID,0,VALID,25.6311,VALID,117,VALID,0.417188,
2012-05-24, 03:03:04,VALID,1002.48,VALID,0,VALID,90.8981,VALID,0,VALID,25.6311,VALID,117,VALID,0.0015625,
2012-05-24, 03:04:04,VALID,1002.48,VALID,0,VALID,90.8829,VALID,0,VALID,25.6311,VALID,117,VALID,0.00078125,
2012-05-24, 03:05:04,VALID,1002.49,VALID,0,VALID,90.8218,VALID,0,VALID,25.6116,VALID,117,VALID,0.489453,
2012-05-24, 03:06:04,VALID,1002.46,VALID,0,VALID,90.8295,VALID,0,VALID,25.5921,VALID,122,VALID,0.630469,
2012-05-24, 03:07:04,VALID,1002.5,VALID,0,VALID,91.0354,VALID,0,VALID,25.6116,VALID,132,VALID,0.94375,
2012-05-24, 03:08:04,VALID,1002.52,VALID,0,VALID,90.776,VALID,0,VALID,25.6292,VALID,131,VALID,0.734766,
2012-05-24, 03:09:04,VALID,1002.49,VALID,0,VALID,90.5243,VALID,0,VALID,25.6895,VALID,120,VALID,0.474609,
2012-05-24, 03:10:04,VALID,1002.53,VALID,0,VALID,90.2725,VALID,0,VALID,25.6486,VALID,90,VALID,0.276172,
2012-05-24, 03:11:04,VALID,1002.5,VALID,0,VALID,90.1734,VALID,0,VALID,25.67,VALID,90,VALID,0.148047,
2012-05-24, 03:12:04,VALID,1002.5,VALID,0,VALID,90.0666,VALID,0,VALID,25.6097,VALID,90,VALID,0.274219,
2012-05-24, 03:13:04,VALID,1002.49,VALID,0,VALID,90.387,VALID,0,VALID,25.6311,VALID,41,VALID,0.523047,
2012-05-24, 03:14:04,VALID,1002.47,VALID,0,VALID,90.2039,VALID,0,VALID,25.5902,VALID,63,VALID,0.3375,
2012-05-24, 03:15:04,VALID,1002.48,VALID,0,VALID,90.0971,VALID,0,VALID,25.6116,VALID,65,VALID,0.564453,
2012-05-24, 03:16:04,VALID,1002.47,VALID,0,VALID,89.975,VALID,0,VALID,25.5727,VALID,65,VALID,0.219922,
2012-05-24, 03:17:04,VALID,1002.43,VALID,0,VALID,90.0437,VALID,0,VALID,25.5318,VALID,65,VALID,0,
2012-05-24, 03:18:04,VALID,1002.44,VALID,0,VALID,89.9445,VALID,0,VALID,25.5337,VALID,65,VALID,0.00273437,
2012-05-24, 03:19:04,VALID,1002.45,VALID,0,VALID,90.1352,VALID,0,VALID,25.4539,VALID,65,VALID,0.341797,
2012-05-24, 03:20:04,VALID,1002.45,VALID,0,VALID,90.3183,VALID,0,VALID,25.4558,VALID,65,VALID,0.25625,
2012-05-24, 03:21:04,VALID,1002.47,VALID,0,VALID,90.6158,VALID,0,VALID,25.4558,VALID,68,VALID,0.329297,
2012-05-24, 03:22:04,VALID,1002.48,VALID,0,VALID,90.6006,VALID,0,VALID,25.4558,VALID,85,VALID,0.295312,
2012-05-24, 03:23:04,VALID,1002.46,VALID,0,VALID,90.5624,VALID,0,VALID,25.4149,VALID,85,VALID,0,
2012-05-24, 03:24:04,VALID,1002.47,VALID,0,VALID,90.6387,VALID,0,VALID,25.4363,VALID,85,VALID,0,
2012-05-24, 03:25:04,VALID,1002.49,VALID,0,VALID,90.5777,VALID,0,VALID,25.4169,VALID,85,VALID,0.100391,
2012-05-24, 03:26:04,VALID,1002.46,VALID,0,VALID,90.3717,VALID,0,VALID,25.3974,VALID,85,VALID,0.281641,
2012-05-24, 03:27:04,VALID,1002.49,VALID,0,VALID,90.1352,VALID,0,VALID,25.3604,VALID,85,VALID,0.258594,
2012-05-24, 03:28:04,VALID,1002.45,VALID,0,VALID,90.509,VALID,0,VALID,25.2806,VALID,85,VALID,0.0855469,
2012-05-24, 03:29:04,VALID,1002.45,VALID,0,VALID,90.7608,VALID,0,VALID,25.2416,VALID,85,VALID,0,
2012-05-24, 03:30:04,VALID,1002.44,VALID,0,VALID,90.9591,VALID,0,VALID,25.2027,VALID,85,VALID,0,
2012-05-24, 03:31:04,VALID,1002.44,VALID,0,VALID,90.9973,VALID,0,VALID,25.1442,VALID,85,VALID,0,
2012-05-24, 03:32:04,VALID,1002.43,VALID,0,VALID,91.1422,VALID,0,VALID,25.1053,VALID,85,VALID,0,
2012-05-24, 03:33:04,VALID,1002.41,VALID,0,VALID,91.6,VALID,0,VALID,25.1248,VALID,85,VALID,0,
2012-05-24, 03:34:04,VALID,1002.42,VALID,0,VALID,91.4398,VALID,0,VALID,25.0644,VALID,54,VALID,0,
2012-05-24, 03:35:04,VALID,1002.41,VALID,0,VALID,91.0736,VALID,0,VALID,25.0079,VALID,54,VALID,0,
2012-05-24, 03:36:04,VALID,1002.42,VALID,0,VALID,91.0202,VALID,0,VALID,24.9106,VALID,54,VALID,0,
2012-05-24, 03:37:04,VALID,1002.41,VALID,0,VALID,91.4855,VALID,0,VALID,24.8522,VALID,54,VALID,0,
2012-05-24, 03:38:04,VALID,1002.41,VALID,0,VALID,91.8746,VALID,0,VALID,24.8327,VALID,54,VALID,0,
2012-05-24, 03:39:04,VALID,1002.42,VALID,0,VALID,92.2637,VALID,0,VALID,24.8522,VALID,54,VALID,0,
2012-05-24, 03:40:04,VALID,1002.38,VALID,0,VALID,92.4163,VALID,0,VALID,24.8308,VALID,54,VALID,0.05625,
2012-05-24, 03:41:04,VALID,1002.4,VALID,0,VALID,92.6222,VALID,0,VALID,24.8892,VALID,54,VALID,0.00742187,
2012-05-24, 03:42:04,VALID,1002.38,VALID,0,VALID,92.6451,VALID,0,VALID,24.93,VALID,59,VALID,0.44375,
2012-05-24, 03:43:04,VALID,1002.41,VALID,0,VALID,92.4697,VALID,0,VALID,24.9476,VALID,75,VALID,0.294922,
2012-05-24, 03:44:04,VALID,1002.4,VALID,0,VALID,91.9433,VALID,0,VALID,24.9495,VALID,75,VALID,0,
2012-05-24, 03:45:04,VALID,1002.4,VALID,0,VALID,91.7068,VALID,0,VALID,24.9106,VALID,63,VALID,0.333594,
2012-05-24, 03:46:04,VALID,1002.41,VALID,0,VALID,91.4932,VALID,0,VALID,24.8327,VALID,63,VALID,0.469922,